TimePDT,TemperatureF,Dew PointF,Humidity,Sea Level PressureIn,VisibilityMPH,Wind Direction,Wind SpeedMPH,Gust SpeedMPH,PrecipitationIn,Events,Conditions,WindDirDegrees,DateUTC
12:53 AM,55.9,54.0,93,29.99,8.0,Calm,Calm,-,0.00,,Overcast,0,2012-09-06 07:53:00
1:53 AM,55.9,53.1,90,29.98,9.0,South,5.8,-,N/A,,Overcast,190,2012-09-06 08:53:00
2:14 AM,55.4,53.6,94,29.98,8.0,Calm,Calm,-,N/A,,Overcast,0,2012-09-06 09:14:00
2:53 AM,55.9,53.1,90,29.97,9.0,Calm,Calm,-,N/A,,Overcast,0,2012-09-06 09:53:00
3:53 AM,55.0,53.1,93,29.97,8.0,Calm,Calm,-,N/A,,Overcast,0,2012-09-06 10:53:00
4:53 AM,55.0,53.1,93,29.97,9.0,South,4.6,-,N/A,,Overcast,170,2012-09-06 11:53:00
5:53 AM,55.0,53.1,93,29.97,9.0,Calm,Calm,-,N/A,,Overcast,0,2012-09-06 12:53:00
6:53 AM,55.0,53.1,93,29.98,9.0,South,3.5,-,N/A,,Overcast,170,2012-09-06 13:53:00
7:53 AM,55.9,53.1,90,29.99,7.0,SE,4.6,-,N/A,,Overcast,140,2012-09-06 14:53:00
8:33 AM,55.4,53.6,94,30.00,8.0,Calm,Calm,-,N/A,,Overcast,0,2012-09-06 15:33:00
8:53 AM,57.9,53.1,84,30.00,9.0,Calm,Calm,-,N/A,,Overcast,0,2012-09-06 15:53:00
9:53 AM,59.0,53.1,81,30.01,10.0,SE,3.5,-,N/A,,Overcast,130,2012-09-06 16:53:00
10:02 AM,60.8,53.6,77,30.01,10.0,SSW,3.5,-,N/A,,Overcast,210,2012-09-06 17:02:00
10:25 AM,60.8,53.6,77,30.01,10.0,Calm,Calm,-,N/A,,Scattered Clouds,0,2012-09-06 17:25:00
10:53 AM,63.0,53.1,70,30.01,10.0,SSE,4.6,-,N/A,,Clear,150,2012-09-06 17:53:00
11:53 AM,68.0,54.0,61,30.00,10.0,South,4.6,-,N/A,,Clear,180,2012-09-06 18:53:00
12:53 PM,69.1,54.0,58,29.99,10.0,Variable,5.8,-,N/A,,Mostly Cloudy,0,2012-09-06 19:53:00
1:53 PM,68.0,54.0,61,29.99,10.0,WSW,8.1,-,N/A,,Clear,240,2012-09-06 20:53:00
2:53 PM,69.1,52.0,54,29.98,10.0,SW,8.1,-,N/A,,Clear,230,2012-09-06 21:53:00
3:53 PM,66.9,51.1,57,29.98,10.0,SSW,8.1,-,N/A,,Clear,200,2012-09-06 22:53:00
4:53 PM,64.9,51.1,61,29.99,10.0,SW,10.4,-,N/A,,Clear,230,2012-09-06 23:53:00
5:53 PM,61.0,51.1,70,30.00,10.0,SW,9.2,-,N/A,,Clear,220,2012-09-07 00:53:00
6:53 PM,57.9,52.0,81,30.00,10.0,SW,8.1,-,N/A,,Clear,220,2012-09-07 01:53:00
8:53 PM,55.0,51.1,86,30.02,10.0,Calm,Calm,-,N/A,,Partly Cloudy,0,2012-09-07 03:53:00
9:53 PM,55.0,51.1,86,30.03,10.0,Calm,Calm,-,N/A,,Mostly Cloudy,0,2012-09-07 04:53:00
10:12 PM,55.4,51.8,88,30.02,10.0,Calm,Calm,-,N/A,,Scattered Clouds,0,2012-09-07 05:12:00
10:53 PM,55.9,52.0,87,30.03,10.0,Calm,Calm,-,N/A,,Clear,0,2012-09-07 05:53:00
11:53 PM,55.0,51.1,86,30.03,10.0,Calm,Calm,-,N/A,,Clear,0,2012-09-07 06:53:00